FW6665 Weather Reports


Display with metric or nautical units.
time (UTC)temp
F
wind
direction
speed
MPH
gust
MPH
rain 1hr
in
rain 24hr
in
rain mn
in
humidity
%
barometer
mb
20260509024204 46 133 0.0 0.0 0.00 0.00 0.00 82 1015.7
20260509023704 46 133 0.0 0.0 0.00 0.00 0.00 82 1015.7
20260509023205 46 133 0.0 0.0 0.00 0.00 0.00 82 1015.6
20260509022204 46 133 0.0 0.0 0.00 0.00 0.00 82 1015.6
20260509021705 46 133 0.0 0.0 0.00 0.00 0.00 82 1015.6
20260509020705 47 133 0.0 0.0 0.00 0.00 0.00 83 1015.6
20260509015205 47 133 0.0 0.0 0.00 0.00 0.00 82 1015.6
20260509014704 47 133 0.0 0.0 0.00 0.00 0.00 82 1015.6
20260509014204 47 133 0.0 0.0 0.00 0.00 0.00 82 1015.7
20260509013705 47 133 0.0 0.0 0.00 0.00 0.00 82 1015.7
20260509013205 47 133 0.0 0.0 0.00 0.00 0.00 83 1015.7
20260509012704 47 133 0.0 0.0 0.00 0.00 0.00 83 1015.8
20260509012205 47 133 0.0 0.0 0.00 0.00 0.00 83 1015.7
20260509011705 48 133 0.0 0.0 0.00 0.00 0.00 83 1015.7
20260509011204 48 133 0.0 0.0 0.00 0.00 0.00 83 1015.7
20260509010204 48 133 0.0 0.0 0.00 0.00 0.00 83 1015.8
20260509005705 48 133 0.0 0.0 0.00 0.00 0.00 83 1015.7
20260509005204 48 133 0.0 0.0 0.00 0.00 0.00 83 1015.7
20260509004704 48 133 0.0 1.0 0.00 0.00 0.00 83 1015.7
20260509004204 48 133 0.0 1.0 0.00 0.00 0.00 83 1015.7
20260509003704 48 133 0.0 0.0 0.00 0.00 0.00 83 1015.8
20260509002204 49 133 0.0 0.0 0.00 0.00 0.00 83 1015.9
20260509001704 49 133 0.0 0.0 0.00 0.00 0.00 83 1015.8
20260509001204 49 133 0.0 0.0 0.00 0.00 0.00 83 1015.8
20260509000704 49 133 0.0 0.0 0.00 0.00 0.00 83 1015.8
20260509000204 49 133 0.0 0.0 0.00 0.00 0.00 83 1015.9
20260508235705 49 133 0.0 0.0 0.00 0.00 0.00 83 1015.8
20260508235204 49 133 0.0 0.0 0.00 0.00 0.00 83 1015.9
20260508234704 49 133 0.0 0.0 0.00 0.00 0.00 83 1015.9
20260508234204 49 133 0.0 0.0 0.00 0.00 0.00 83 1015.9
20260508232703 50 133 0.0 0.0 0.00 0.00 0.00 83 1015.9
20260508232205 50 133 0.0 0.0 0.00 0.00 0.00 83 1015.9
20260508231705 50 133 0.0 0.0 0.00 0.00 0.00 83 1016.1
20260508231204 50 133 0.0 0.0 0.00 0.00 0.00 82 1016.0
20260508230705 50 133 0.0 0.0 0.00 0.00 0.00 82 1016.1
20260508230205 50 133 0.0 0.0 0.00 0.00 0.00 82 1016.0
20260508225204 51 133 0.0 0.0 0.00 0.00 0.00 82 1016.0
20260508224206 51 133 0.0 0.0 0.00 0.00 0.00 81 1016.1
20260508223705 51 133 0.0 1.0 0.00 0.00 0.00 81 1016.1
20260508223204 51 133 0.0 1.0 0.00 0.00 0.00 81 1016.0
20260508222705 51 133 0.0 1.0 0.00 0.00 0.00 81 1016.1
20260508222204 51 133 0.0 1.0 0.00 0.00 0.00 80 1015.9
20260508221704 51 133 0.0 1.0 0.00 0.00 0.00 80 1016.0
20260508221204 52 133 0.0 1.0 0.00 0.00 0.00 79 1015.9
20260508220704 52 133 0.0 0.0 0.00 0.00 0.00 79 1016.0
20260508220203 52 133 0.0 1.0 0.00 0.00 0.00 79 1015.9
20260508214704 52 133 0.0 0.0 0.00 0.00 0.00 78 1015.9
20260508214204 53 133 0.0 0.0 0.00 0.00 0.00 77 1015.9
20260508213704 53 133 0.0 0.0 0.00 0.00 0.00 77 1015.9
20260508213205 53 133 0.0 0.0 0.00 0.00 0.00 76 1015.9
20260508212705 53 133 0.0 0.0 0.00 0.00 0.00 76 1015.8
20260508212206 53 133 0.0 0.0 0.00 0.00 0.00 75 1015.8
20260508211704 53 133 0.0 1.0 0.00 0.00 0.00 75 1015.8
20260508211220 53 133 0.0 1.0 0.00 0.00 0.00 74 1015.7
20260508210704 54 133 0.0 1.0 0.00 0.00 0.00 74 1015.7
20260508210204 54 133 0.0 1.0 0.00 0.00 0.00 74 1015.7
20260508205704 54 133 0.0 1.0 0.00 0.00 0.00 73 1015.7
20260508205205 54 133 0.0 1.0 0.00 0.00 0.00 73 1015.6
20260508204704 54 133 0.0 1.0 0.00 0.00 0.00 73 1015.7
20260508204204 55 133 0.0 1.0 0.00 0.00 0.00 72 1015.6
20260508203705 55 133 0.0 1.0 0.00 0.00 0.00 72 1015.6
20260508203204 55 133 0.0 1.0 0.00 0.00 0.00 72 1015.6
20260508202205 55 134 0.0 2.0 0.00 0.00 0.00 72 1015.5
20260508201705 56 134 0.0 2.0 0.00 0.00 0.00 71 1015.5
20260508200704 56 134 0.0 1.0 0.00 0.00 0.00 70 1015.4
20260508200204 56 134 0.0 1.0 0.00 0.00 0.00 70 1015.4
20260508195704 56 134 0.0 1.0 0.00 0.00 0.00 69 1015.3
20260508195204 57 134 0.0 1.0 0.00 0.00 0.00 69 1015.3
20260508194704 57 134 0.0 2.0 0.00 0.00 0.00 69 1015.2
20260508194205 57 134 0.0 2.0 0.00 0.00 0.00 68 1015.2
20260508193704 57 134 0.0 2.0 0.00 0.00 0.00 67 1015.2
20260508193205 58 134 0.0 2.0 0.00 0.00 0.00 66 1015.0
20260508192204 58 134 0.0 2.0 0.00 0.00 0.00 65 1015.0
20260508191204 59 134 0.0 2.0 0.00 0.00 0.00 63 1014.8
20260508190704 59 134 0.0 5.0 0.00 0.00 0.00 62 1014.8
20260508190204 59 134 0.0 5.0 0.00 0.00 0.00 61 1014.8
20260508185704 60 113 1.0 5.0 0.00 0.00 0.00 60 1014.8
20260508185204 60 117 0.0 2.0 0.00 0.00 0.00 60 1014.7
20260508184705 61 117 0.0 1.0 0.00 0.00 0.00 60 1014.7
20260508184207 61 117 0.0 3.0 0.00 0.00 0.00 60 1014.7
20260508183705 62 117 0.0 3.0 0.00 0.00 0.00 60 1014.6
20260508183205 62 117 0.0 3.0 0.00 0.00 0.00 60 1014.6
20260508182704 62 117 1.0 4.0 0.00 0.00 0.00 59 1014.6
20260508182205 62 117 0.0 4.0 0.00 0.00 0.00 59 1014.5
20260508181204 63 110 0.0 2.0 0.00 0.00 0.00 58 1014.4
20260508180704 63 110 1.0 3.0 0.00 0.00 0.00 58 1014.3
20260508180204 64 110 0.0 4.0 0.00 0.00 0.00 58 1014.4
20260508175204 64 110 1.0 3.0 0.00 0.00 0.00 58 1014.3
20260508174704 64 90 0.0 3.0 0.00 0.00 0.00 57 1014.3
20260508174204 65 99 1.0 3.0 0.00 0.00 0.00 57 1014.3
20260508173705 65 94 1.0 3.0 0.00 0.00 0.00 58 1014.2
20260508173204 64 94 0.0 3.0 0.00 0.00 0.00 58 1014.2
20260508172708 64 94 0.0 3.0 0.00 0.00 0.00 58 1014.2
20260508171704 65 86 0.0 2.0 0.00 0.00 0.00 57 1014.2
20260508171204 65 85 1.0 3.0 0.00 0.00 0.00 58 1014.2
20260508170204 65 85 1.0 2.0 0.00 0.00 0.00 57 1014.0
20260508165704 65 83 1.0 3.0 0.00 0.00 0.00 57 1014.0
20260508165204 65 80 1.0 4.0 0.00 0.00 0.00 56 1014.0
20260508163705 65 113 0.0 3.0 0.00 0.00 0.00 56 1013.9
20260508162704 65 113 1.0 5.0 0.00 0.00 0.00 56 1013.9
20260508162204 65 116 1.0 5.0 0.00 0.00 0.00 56 1013.9
20260508161704 66 120 0.0 4.0 0.00 0.00 0.00 56 1013.8
20260508161205 66 120 1.0 4.0 0.00 0.00 0.00 55 1013.9
20260508160704 66 120 0.0 5.0 0.00 0.00 0.00 56 1013.8
20260508160205 66 121 1.0 5.0 0.00 0.00 0.00 56 1013.8
20260508155705 65 94 0.0 6.0 0.00 0.00 0.00 55 1013.8
20260508155205 66 83 2.0 6.0 0.00 0.00 0.00 55 1013.8
20260508154705 66 71 2.0 6.0 0.00 0.00 0.00 55 1013.8
20260508154204 66 107 1.0 4.0 0.00 0.00 0.00 56 1013.8
20260508153704 65 104 1.0 3.0 0.00 0.00 0.00 57 1013.8
20260508153204 65 109 1.0 4.0 0.00 0.00 0.00 56 1013.9
20260508152704 65 106 1.0 4.0 0.00 0.00 0.00 57 1013.9
20260508152205 65 104 0.0 4.0 0.00 0.00 0.00 56 1013.9
20260508151704 66 106 1.0 5.0 0.00 0.00 0.00 57 1013.9
20260508151204 66 106 0.0 5.0 0.00 0.00 0.00 57 1013.9
20260508150705 66 106 0.0 5.0 0.00 0.00 0.00 56 1013.9
20260508150204 66 82 1.0 3.0 0.00 0.00 0.00 56 1014.0
20260508145704 66 82 0.0 4.0 0.00 0.00 0.00 56 1014.0
20260508145204 66 82 1.0 4.0 0.00 0.00 0.00 56 1014.1
20260508144705 67 75 0.0 4.0 0.00 0.00 0.00 56 1013.9
20260508144205 67 100 1.0 5.0 0.00 0.00 0.00 57 1014.0
20260508143705 66 106 1.0 5.0 0.00 0.00 0.00 59 1014.0
20260508143204 66 104 1.0 5.0 0.00 0.00 0.00 57 1014.0
20260508142705 66 104 1.0 5.0 0.00 0.00 0.00 56 1013.9
20260508142205 66 113 2.0 3.0 0.00 0.00 0.00 57 1014.0
20260508141704 66 120 1.0 3.0 0.00 0.00 0.00 58 1014.0
20260508141205 66 118 1.0 3.0 0.00 0.00 0.00 56 1013.9
20260508140704 66 118 1.0 4.0 0.00 0.00 0.00 57 1013.9
20260508140205 65 120 0.0 4.0 0.00 0.00 0.00 59 1013.9
20260508135705 65 121 0.0 4.0 0.00 0.00 0.00 57 1014.0
20260508135204 65 114 0.0 3.0 0.00 0.00 0.00 57 1014.1
20260508134704 66 114 0.0 3.0 0.00 0.00 0.00 57 1014.0
20260508134204 66 114 1.0 2.0 0.00 0.00 0.00 56 1014.2
20260508133203 66 100 1.0 3.0 0.00 0.00 0.00 58 1014.2
20260508132704 65 100 0.0 3.0 0.00 0.00 0.00 58 1014.2
20260508132205 65 100 1.0 3.0 0.00 0.00 0.00 57 1014.2
20260508131704 65 99 0.0 5.0 0.00 0.00 0.00 58 1014.3
20260508131204 65 99 0.0 5.0 0.00 0.00 0.00 58 1014.3
20260508130204 65 99 1.0 2.0 0.00 0.00 0.00 59 1014.2
20260508125706 64 99 1.0 2.0 0.00 0.00 0.00 60 1014.2
20260508124704 64 100 0.0 2.0 0.00 0.00 0.00 61 1014.3
20260508124204 63 100 0.0 2.0 0.00 0.00 0.00 62 1014.3
20260508123704 63 100 1.0 2.0 0.00 0.00 0.00 61 1014.3
20260508123206 63 100 0.0 2.0 0.00 0.00 0.00 61 1014.3
20260508122705 63 100 1.0 3.0 0.00 0.00 0.00 61 1014.4
20260508122205 63 100 0.0 3.0 0.00 0.00 0.00 61 1014.3
20260508121704 63 100 1.0 2.0 0.00 0.00 0.00 59 1014.3
20260508120704 63 100 0.0 3.0 0.00 0.00 0.00 57 1014.5
20260508120205 63 100 1.0 3.0 0.00 0.00 0.00 57 1014.3
20260508115205 63 104 0.0 2.0 0.00 0.00 0.00 55 1014.4
20260508114705 63 104 0.0 4.0 0.00 0.00 0.00 56 1014.3
20260508114205 63 104 0.0 4.0 0.00 0.00 0.00 56 1014.3
20260508113205 63 104 1.0 5.0 0.00 0.00 0.00 56 1014.3
20260508112705 63 104 0.0 5.0 0.00 0.00 0.00 59 1014.2
20260508112205 63 104 2.0 3.0 0.00 0.00 0.00 56 1014.1
20260508111204 64 109 1.0 2.0 0.00 0.00 0.00 56 1014.2
20260508110704 64 107 0.0 2.0 0.00 0.00 0.00 58 1014.3
20260508110204 64 107 0.0 4.0 0.00 0.00 0.00 58 1014.4
20260508105205 64 107 1.0 5.0 0.00 0.00 0.00 56 1014.4
20260508104205 64 107 2.0 3.0 0.00 0.00 0.00 55 1014.4
20260508103705 64 100 1.0 3.0 0.00 0.00 0.00 58 1014.3
20260508103205 64 100 0.0 3.0 0.00 0.00 0.00 59 1014.3
20260508102705 63 100 0.0 5.0 0.00 0.00 0.00 60 1014.4
20260508101705 63 103 2.0 5.0 0.00 0.00 0.00 57 1014.4
20260508101204 64 103 3.0 5.0 0.00 0.00 0.00 56 1014.4
20260508100704 65 94 2.0 5.0 0.00 0.00 0.00 57 1014.5
20260508100205 65 116 1.0 5.0 0.00 0.00 0.00 56 1014.4
20260508095705 65 118 2.0 4.0 0.00 0.00 0.00 57 1014.4
20260508095204 65 106 0.0 3.0 0.00 0.00 0.00 59 1014.3
20260508094704 65 106 1.0 3.0 0.00 0.00 0.00 59 1014.4
20260508093704 64 107 1.0 5.0 0.00 0.00 0.00 62 1014.4
20260508093204 63 109 2.0 6.0 0.00 0.00 0.00 61 1014.4
20260508092704 63 114 2.0 6.0 0.00 0.00 0.00 62 1014.4
20260508092210 63 117 2.0 6.0 0.00 0.00 0.00 62 1014.4
20260508091704 63 118 2.0 7.0 0.00 0.00 0.00 63 1014.3
20260508091204 62 133 1.0 7.0 0.00 0.00 0.00 66 1014.5
20260508090705 62 133 1.0 6.0 0.00 0.00 0.00 66 1014.5
20260508090204 61 109 2.0 6.0 0.00 0.00 0.00 68 1014.5
20260508085704 61 114 1.0 6.0 0.00 0.00 0.00 70 1014.4
20260508084705 59 103 1.0 5.0 0.00 0.00 0.00 76 1014.6
20260508084204 58 103 2.0 5.0 0.00 0.00 0.00 77 1014.5
20260508083705 58 109 2.0 4.0 0.00 0.00 0.00 78 1014.6
20260508083203 57 103 0.0 4.0 0.00 0.00 0.00 81 1014.6
20260508082705 56 99 1.0 4.0 0.00 0.00 0.00 81 1014.6
20260508081703 56 93 1.0 3.0 0.00 0.00 0.00 83 1014.5
20260508081204 56 92 1.0 3.0 0.00 0.00 0.00 83 1014.4
20260508080708 55 97 1.0 3.0 0.00 0.00 0.00 82 1014.3
20260508080204 55 96 0.0 2.0 0.00 0.00 0.00 80 1014.3
20260508075204 54 96 0.0 4.0 0.00 0.00 0.00 77 1014.3
20260508074704 53 96 0.0 2.0 0.00 0.00 0.00 77 1014.4
20260508074209 53 94 0.0 2.0 0.00 0.00 0.00 77 1014.4
20260508073704 53 94 0.0 2.0 0.00 0.00 0.00 76 1014.4
20260508073206 52 93 0.0 2.0 0.00 0.00 0.00 74 1014.4
20260508072704 52 93 0.0 2.0 0.00 0.00 0.00 73 1014.4
20260508070204 50 93 0.0 1.0 0.00 0.00 0.00 70 1014.4
20260508065705 50 93 0.0 1.0 0.00 0.00 0.00 71 1014.4
20260508065205 50 93 0.0 1.0 0.00 0.00 0.00 71 1014.4
20260508064704 49 93 0.0 1.0 0.00 0.00 0.00 71 1014.3
20260508064204 49 93 0.0 1.0 0.00 0.00 0.00 72 1014.3
20260508063705 49 93 0.0 1.0 0.00 0.00 0.00 72 1014.2
20260508063204 49 93 0.0 1.0 0.00 0.00 0.00 71 1014.3
20260508062706 49 93 0.0 1.0 0.00 0.00 0.00 71 1014.2
20260508062205 48 94 0.0 1.0 0.00 0.00 0.00 71 1014.2
20260508061704 48 94 0.0 1.0 0.00 0.00 0.00 71 1014.2
20260508060705 47 94 0.0 1.0 0.00 0.00 0.00 72 1014.1
20260508060205 47 94 0.0 1.0 0.00 0.00 0.00 72 1014.2
20260508055704 47 94 0.0 1.0 0.00 0.00 0.00 73 1014.1
20260508055205 47 94 0.0 1.0 0.00 0.00 0.00 73 1014.1
20260508054704 47 94 0.0 1.0 0.00 0.00 0.00 74 1014.1
20260508054207 46 94 0.0 1.0 0.00 0.00 0.00 74 1014.0
20260508053705 46 94 0.0 1.0 0.00 0.00 0.00 74 1013.9
20260508053205 46 94 0.0 1.0 0.00 0.00 0.00 75 1014.0
20260508052704 46 94 0.0 0.0 0.00 0.00 0.00 75 1013.9
20260508052204 46 94 0.0 0.0 0.00 0.00 0.00 74 1013.7
20260508051206 45 94 0.0 0.0 0.00 0.00 0.00 74 1013.8
20260508050704 45 94 0.0 0.0 0.00 0.00 0.00 74 1013.8
20260508050204 45 94 0.0 0.0 0.00 0.00 0.00 75 1013.7
20260508045704 44 94 0.0 0.0 0.00 0.00 0.00 75 1013.7
20260508045204 44 94 0.0 0.0 0.00 0.00 0.00 76 1013.7
20260508044204 44 94 0.0 0.0 0.00 0.00 0.00 78 1013.7
20260508043704 44 94 0.0 0.0 0.00 0.00 0.00 78 1013.6
20260508043204 44 94 0.0 0.0 0.00 0.00 0.00 78 1013.7
20260508042704 44 94 0.0 0.0 0.00 0.00 0.00 78 1013.7
20260508042231 44 94 0.0 0.0 0.00 0.00 0.00 79 1013.6
20260508041705 44 94 0.0 0.0 0.00 0.00 0.00 79 1013.6
20260508041208 44 94 0.0 0.0 0.00 0.00 0.00 79 1013.7
20260508040704 44 94 0.0 0.0 0.00 0.00 0.00 78 1013.7
20260508040205 43 94 0.0 0.0 0.00 0.00 0.00 79 1013.7
20260508035205 43 94 0.0 0.0 0.00 0.00 0.00 80 1013.6
20260508034705 43 94 0.0 0.0 0.00 0.00 0.00 80 1013.6
20260508034203 43 94 0.0 0.0 0.00 0.00 0.00 80 1013.6
20260508033704 43 94 0.0 0.0 0.00 0.00 0.00 80 1013.6
20260508033203 43 94 0.0 0.0 0.00 0.00 0.00 80 1013.6
20260508031704 43 94 0.0 0.0 0.00 0.00 0.00 81 1013.7
20260508031205 43 94 0.0 0.0 0.00 0.00 0.00 81 1013.5
20260508030704 43 94 0.0 0.0 0.00 0.00 0.00 81 1013.7
20260508025705 43 94 0.0 0.0 0.00 0.00 0.00 82 1013.6
20260508025205 43 94 0.0 0.0 0.00 0.00 0.00 82 1013.6